Marshfield, WI

1:20 PM CDT on June 25, 2017 (GMT -0500)
Marshfield Municipal

Weather History for KMFI - January, 2012

Change the Weather History Date:

Friday, January 20, 2012

  Actual Average Record
Temperature  
Mean Temperature -3 °F -  
Max Temperature 5 °F 24 °F 46 °F (1921)
Min Temperature -11 °F 3 °F -28 °F (1985)
Degree Days  
Heating Degree Days 68    
Moisture  
Dew Point -8 °F    
Average Humidity 73    
Maximum Humidity 85    
Minimum Humidity 60    
Precipitation  
Precipitation 0.00 in - - ()
Sea Level Pressure  
Sea Level Pressure 30.20 in    
Wind  
Wind Speed 1 mph (SW)    
Max Wind Speed 5 mph    
Max Gust Speed -    
Visibility 6 miles    
Events Snow    
Averages and records for this station are not official NWS values.
T = Trace of Precipitation, MM = Missing Value Source: NWS Daily Summary

Daily Weather History Graph

Daily Weather History Graph

Search for Another Location

Airport or City:

Trip Planner

Search our weather history database for the weather conditions in past years. The results will help you decide how hot, cold, wet, or windy it might be!

Date:

Astronomy

Jan. 20, 2012 Rise Set
Actual Time 7:31 AM CST 4:52 PM CST
Civil Twilight 6:59 AM CST 5:24 PM CST
Nautical Twilight 6:23 AM CST 6:00 PM CST
Astronomical Twilight 5:48 AM CST 6:35 PM CST
Moon 5:11 AM CST (1/20) 2:21 PM CST (1/20)
Length of Visible Light 10h 25m
Length of Day
9h 21m
Waning Crescent, 8% of the Moon is Illuminated
Jan 20
Waning Crescent
Jan 23
New
Jan 30
First Quarter
Feb 7
Full
Feb 14
Last Quarter

Hourly Weather History & Observations

Time (CST) Temp. Windchill Dew Point Humidity Pressure Visibility Wind Dir Wind Speed Gust Speed Precip Events Conditions
12:54 AM -9.9 °F - -20.0 °F 61% 30.23 in 10.0 mi Calm Calm - N/A   Clear
1:54 AM -11.0 °F - -18.9 °F 68% 30.22 in 10.0 mi Calm Calm - N/A   Clear
2:54 AM -11.0 °F - -18.9 °F 68% 30.22 in 9.0 mi Calm Calm - N/A   Clear
3:54 AM -9.0 °F - -17.0 °F 68% 30.23 in 10.0 mi Calm Calm - N/A   Clear
4:54 AM -6.0 °F - -14.1 °F 68% 30.25 in 10.0 mi Calm Calm - N/A   Clear
5:54 AM -4.0 °F - -13.0 °F 65% 30.24 in 10.0 mi Calm Calm - N/A   Clear
6:54 AM -2.9 °F - -11.9 °F 65% 30.23 in 10.0 mi Calm Calm - N/A   Mostly Cloudy
7:54 AM -0.9 °F - -11.0 °F 62% 30.24 in 10.0 mi Calm Calm - N/A   Overcast
8:54 AM -0.0 °F - -9.0 °F 66% 30.24 in 10.0 mi Calm Calm - N/A   Overcast
9:54 AM 1.0 °F - -9.9 °F 60% 30.24 in 10.0 mi Calm Calm - N/A   Overcast
10:36 AM 1.4 °F -6.2 °F -9.4 °F 61% 30.13 in 1.8 mi SSE 3.5 mph - 0.00 in Snow Light Snow
10:54 AM 1.0 °F -6.7 °F -7.1 °F 69% 30.25 in 1.8 mi South 3.5 mph - 0.00 in Snow Light Snow
11:20 AM 1.4 °F -8.3 °F -5.8 °F 72% 30.14 in 1.0 mi SSW 4.6 mph - 0.00 in Snow Light Snow
11:45 AM 1.4 °F - -5.8 °F 72% 30.13 in 0.8 mi Calm Calm - 0.00 in Snow Light Snow
11:54 AM 1.0 °F -6.7 °F -5.1 °F 75% 30.25 in 0.5 mi South 3.5 mph - 0.00 in Snow Snow
12:20 PM 1.4 °F - -4.0 °F 78% 30.12 in 0.8 mi Calm Calm - 0.00 in Snow Light Snow
12:54 PM 1.9 °F - -2.9 °F 80% 30.23 in 0.8 mi Calm Calm - 0.00 in Snow Light Snow
1:34 PM 1.4 °F - -2.2 °F 85% 30.11 in 1.0 mi Calm Calm - 0.00 in Snow Light Snow
1:54 PM 3.0 °F -6.4 °F -2.9 °F 76% 30.23 in 1.5 mi SSW 4.6 mph - 0.00 in Snow Light Snow
2:21 PM 3.2 °F -4.2 °F -2.2 °F 78% 30.11 in 2.0 mi SW 3.5 mph - 0.00 in Snow Light Snow
2:45 PM 3.2 °F - -2.2 °F 78% 30.12 in 3.0 mi Calm Calm - 0.00 in Snow Light Snow
3:38 PM 3.2 °F - -2.2 °F 78% 30.11 in 2.5 mi Calm Calm - 0.00 in Snow Light Snow
3:46 PM 5.0 °F - -2.2 °F 72% 30.11 in 3.0 mi Calm Calm - 0.00 in Snow Light Snow
3:54 PM 5.0 °F - -2.0 °F 73% 30.22 in 5.0 mi Calm Calm - 0.00 in Snow Light Snow
4:54 PM 1.9 °F - -4.0 °F 76% 30.22 in 10.0 mi Calm Calm - 0.00 in   Clear
5:54 PM 1.0 °F - -5.1 °F 75% 30.22 in 10.0 mi Calm Calm - N/A   Mostly Cloudy
6:54 PM -0.0 °F - -4.0 °F 83% 30.24 in 10.0 mi Calm Calm - N/A   Overcast
8:54 PM -2.0 °F -10.1 °F -6.0 °F 83% 30.25 in 10.0 mi NW 3.5 mph - N/A   Clear
9:54 PM -0.0 °F -9.9 °F -5.1 °F 79% 30.25 in 10.0 mi WNW 4.6 mph - N/A   Overcast
10:54 PM -4.0 °F -12.4 °F -9.0 °F 79% 30.26 in 10.0 mi WNW 3.5 mph - N/A   Clear
11:54 PM -4.0 °F -12.4 °F -9.0 °F 79% 30.27 in 10.0 mi NW 3.5 mph - N/A   Clear